Home > Weather > Temple > Past weeks

Flag for USA Weather for the Past 2 Weeks in Temple, Texas, USA

Now
65 °F

Passing clouds.


Feels Like: 65 °F
Forecast: 51 / 82 °F
Wind: 5 mph from Northeast

Location: Fort Hood AAF Airport

Current Time: May 3, 2016 at 11:39:25 PM

Latest Report: May 3, 2016 at 10:58 PM


Visibility: 10 mi

Pressure: 30.06 "Hg

Humidity: 55%

Dew Point: 48 °F

Location of TempleLocation

Historic Weather in Temple — Graph

°F

Temple Temperature Yesterday

Maximum temperature yesterday: 65 °F (at 12:58 AM)
Minimum temperature yesterday: 53 °F (at 11:58 PM)
Average temperature yesterday: 58 °F

High & Low Weather Summary for the Past Weeks

 TemperatureHumidityPressure
High86 °F (Apr 25, 2:58 PM)100% (Apr 18, 9:59 PM)30.13 "Hg (Apr 18, 9:59 PM)
Low48 °F (May 3, 6:58 AM)20% (Apr 27, 1:58 PM)29.50 "Hg (Apr 29, 6:58 PM)
Average69 °F78%29.86 "Hg
* Reported Apr 18 9:03 PM — May 3 9:58 PM, Temple, Weather by CustomWeather, © 2016

Note: Actual official high and low records may vary slightly from our data, if they occured in-between our weather recording intervals... More about our weather records

Advertising

Temple Weather History for the Previous 24 Hours

Scroll right to see more
 ConditionsComfort  
Time TempWeatherWind HumidityBarometerVisibility
9:58 PM
Tue, May 3
64 °FClear.5 mph61%30.05 "Hg10 mi
8:58 PM65 °FSunny.5 mph58%30.03 "Hg10 mi
7:58 PM69 °FSunny.7 mph50%30.01 "Hg10 mi
6:58 PM72 °FSunny.6 mph45%30.00 "Hg10 mi
5:58 PM73 °FSunny.8 mph43%29.98 "Hg10 mi
4:58 PM73 °FSunny.8 mph43%30.00 "Hg10 mi
3:58 PM72 °FSunny.6 mph44%30.03 "Hg10 mi
2:58 PM71 °FSunny.7 mph47%30.03 "Hg10 mi
1:58 PM70 °FSunny.8 mph47%30.06 "Hg10 mi
12:58 PM68 °FSunny.5 mph47%30.08 "Hg10 mi
11:58 AM67 °FSunny.6 mph49%30.11 "Hg10 mi
10:58 AM63 °FSunny.7 mph58%30.11 "Hg10 mi
9:58 AM61 °FSunny.7 mph63%30.11 "Hg10 mi
8:58 AM57 °FSunny.1 mph78%30.11 "Hg10 mi
7:58 AM51 °FSunny.No wind94%30.10 "Hg10 mi
6:58 AM48 °FClear.3 mph97%30.08 "Hg9 mi
5:58 AM49 °FClear.6 mph95%30.07 "Hg10 mi
4:58 AM49 °FClear.5 mph96%30.06 "Hg10 mi
3:58 AM49 °FClear.5 mph96%30.05 "Hg10 mi
2:58 AM51 °FClear.5 mph94%30.06 "Hg10 mi
1:58 AM51 °FClear.5 mph94%30.08 "Hg10 mi
12:58 AM52 °FPassing clouds.6 mph93%30.10 "Hg10 mi
11:58 PM
Mon, May 2
53 °FPassing clouds.3 mph91%30.09 "Hg10 mi
Weather by CustomWeather, © 2016

See weather overviewHow to use our weather pages